Tracking 30990 objects as of 8-Jul-2025
HD Live streaming from Space Station
objects crossing your sky now

SL-8 DEB

Track SL-8 DEB now!
10-day predictions


NORAD ID: 27746
Int'l Code: 1991-009DB
Perigee: 1,483.4 km
Apogee: 1,763.8 km
Inclination: 74.1 °
Period: 118.6 minutes
Semi major axis: 7994 km
RCS: 0.0277 m2 (small)
Launch date: February 12, 1991
Source: Commonwealth of Independent States (former USSR) (CIS)
Launch site: PLESETSK MISSILE AND SPACE COMPLEX (PKMTR)

Note: This is SATELLITE DEBRIS
Your satellite tracking list
Your tracking list is empty




NASA's NSSDC Master Catalog

Two Line Element Set (TLE):
1 27746U 91009DB  25184.34419053 -.00000128  00000-0 -11276-2 0  9996
2 27746  74.1010 146.8864 0175342 195.4685 317.9301 12.14534524531406
Source of the keplerian elements: AFSPC